{"data":{"norad_id":68192,"intl_designator":"2026-050AB","name":"STARLINK-37098","alt_names":[],"object_type":"PAYLOAD","status":"ACTIVE","operator":null,"country":"US","launch_date":"2026-03-14","launch_site_code":"AFETR","launch_vehicle":null,"mission":null,"orbit_class":"UNKNOWN","rcs_meters":null,"size_class":null,"mass_kg":null,"dimensions":null,"purposes":["comms"],"wikipedia_slug":null,"has_3d_model":false,"image_url":null,"decayed_at":null,"tle_current":{"epoch":"2026-05-25T01:15:04.463136Z","epoch_age_seconds":64383,"freshness":"FRESH","line1":"1 68192U 26050AB  26145.05213499  .00014812  00000+0  44855-3 0  9994","line2":"2 68192  53.1585 271.4038 0001003  83.5308 276.5809 15.34406260 12383","mean_motion":15.3440626,"eccentricity":0.0001003,"inclination_deg":53.1585,"raan_deg":271.4038,"arg_perigee_deg":83.5308,"mean_anomaly_deg":276.5809,"bstar":0.00044855,"rev_number":1238,"period_min":93.847375205573,"perigee_km":461.99849982121,"apogee_km":463.37076864104,"semimajor_km":6840.8216342311,"source":"CELESTRAK","updated_at":"2026-05-25T13:38:21.857776Z"}}}